Regional Weather Roundup
Issued by NWS Sioux Falls, SD

Home | Current Version | Previous Version | Text Only | Print | Product List | Glossary Off
Versions: 1 2 3 4 5 6 7 8 9 10 11 12 13 14 15 16 17 18 19 20 21 22 23 24 25 26 27 28 29 30 31 32 33 34 35 36 37 38 39 40 41 42 43 44 45 46 47 48 49 50

000
ASUS43 KFSD 231102
RWRFSD

WEATHER ROUNDUP FOR SE SOUTH DAKOTA/SW MINNESOTA/NW IOWA
NATIONAL WEATHER SERVICE SIOUX FALLS SD
600 AM CDT TUE SEP 23 2014

NOTE: "FAIR" INDICATES FEW OR NO CLOUDS BELOW 12,000 FEET WITH NO
SIGNIFICANT WEATHER AND OR OBSTRUCTIONS TO VISIBILITY.


SDZ038>040-050-052>070-231200-
SOUTHEAST SOUTH DAKOTA

CITY           SKY/WX    TMP DP  RH WIND       PRES   REMARKS
CHAMBERLAIN    CLOUDY    59  54  81 S12       29.99F
HURON          CLOUDY    61  53  75 S8        30.02F
MADISON        CLOUDY    55  54  94 S8        30.10R
MITCHELL       CLOUDY    62  55  77 S9G18     30.05F
SIOUX FALLS    CLOUDY    59  52  77 S8        30.11S
WINNER         CLOUDY    60  52  74 SE15G28   29.97S
YANKTON        CLOUDY    61  54  77 S14       30.10S
$$

MNZ071-072-080-081-089-090-097-098-231200-
SOUTHWEST MINNESOTA

CITY           SKY/WX    TMP DP  RH WIND       PRES   REMARKS
FAIRMONT       PTCLDY    46  43  87 S7        30.19S
JACKSON        MOCLDY    52  46  82 S6        30.18S
LUVERNE        MOCLDY    54  48  82 S3        30.14S
MARSHALL       PTCLDY    55  46  71 S12       30.11R
MONTEVIDEO     CLEAR     52  48  87 S6        30.13R
PIPESTONE      CLOUDY    52  48  87 SE5       30.13S
REDWOOD FALLS  CLEAR     48  45  89 SE8       30.15S
TRACY          MOCLDY    55  48  80 S12       30.13S
WINDOM         MOCLDY    52  48  87 SE6       30.17R
WORTHINGTON    MOCLDY    54  46  76 S7        30.16S
$$

IAZ001>003-012>014-020>022-031-032-NEZ013-014-SDZ071-231200-
NORTHWEST IOWA

CITY           SKY/WX    TMP DP  RH WIND       PRES   REMARKS
CHEROKEE       MOCLDY    53  52  94 CALM      30.17S
DENISON        CLOUDY    57  54  88 SE8       30.17R
ESTHERVILLE    MOCLDY    44  44 100 S7        30.18S
LE MARS          N/A     57  52  82 SE8       30.15S
ORANGE CITY    MOCLDY    55  50  82 SE3       30.15S
SHELDON        CLOUDY    54  50  87 SE7       30.15R
SIOUX CITY     CLOUDY    58  54  86 SE7       30.14R
SPENCER        PTCLDY    51  48  89 S7        30.17S
$$

ABBREVIATIONS USED IN REMARKS
   TC - TEMPERATURE IN CELSIUS
  WCI - WIND CHILL INDEX
   HX - HEAT INDEX
  VSB - VISIBILITY



USA.gov is the U.S. government's official web portal to all federal, state and local government web resources and services.